Temperature
15 15 15 15 15 15 15 15 15 15 15 15 15 15 15 15 15 15 15 15 15 15 15 15 15 16 16 15 16 16 16 16 16 16 16 16 16 16 16 16 16 16 16
14 14 14 14 14 14 14 14 14 14 15 14 14 14 14 15 15 15 15 15 15 15 15 15 15 15 15 15 15 15 15 15 15 15 15 15 15 15 15 15 15 15 15
14 14 14 14 14 14 14 14 14 14 14 14 14 14 14 14 14 14 14 14 14 15 15 15 15 15 15 15 15 15 15 15 15 15 15 15 15 15 15 15 15 15 15
14 14 14 14 14 14 14 14 14 14 14 14 14 14 14 14 14 14 14 14 14 14 14 15 15 15 15 15 15 15 15 15 15 15 15 15 15 15 15 15 15 15 15
14 14 14 14 14 14 14 14 14 14 14 14 14 14 13 13 14 14 14 14 14 14 14 14 15 15 15 15 15 14 14 14 14 15 15 15 15 15 15 15 15 14 14
14 14 14 14 14 14 14 14 13 13 13 13 14 13 13 13 13 13 13 13 13 14 14 14 14 14 14 14 14 14 14 14 14 14 14 14 14 14 14 14 14 14 14
14 14 14 13 13 13 13 13 13 13 13 13 13 13 13 13 13 13 13 13 13 13 13 13 13 13 14 14 14 14 14 14 14 14 14 14 14 14 14 14 14 14 14
14 14 14 13 13 13 13 13 13 13 13 13 13 13 14 14 13 13 13 13 13 13 13 13 13 13 13 13 13 14 14 14 14 14 14 14 14 14 13 13 13 13 13
13 13 13 13 13 13 13 13 13 13 13 13 13 13 14 14 13 13 12 12 13 13 13 13 13 13 13 13 13 13 14 14 14 13 13 13 13 13 13 13 13 13 13
13 13 13 13 13 13 13 13 13 12 12 12 12 12 13 13 13 13 13 12 12 12 12 12 12 12 12 12 13 13 13 13 13 13 13 13 13 13 13 13 13 13 13
12 12 12 12 12 12 12 12 12 12 12 12 12 12 12 12 12 13 13 12 12 12 12 12 12 12 12 12 12 12 13 13 13 13 13 13 13 13 13 13 13 13 13
12 12 12 12 12 12 12 12 12 12 12 12 11 11 11 12 12 12 12 12 12 12 11 11 12 12 11 11 12 12 12 13 13 13 12 12 12 12 12 12 12 12 12
11 11 12 12 12 12 12 12 11 11 11 11 11 11 11 11 11 11 12 12 11 11 11 11 11 11 11 11 11 12 12 12 12 12 12 12 12 12 12 12 12 12 12
11 11 11 11 11 11 11 11 11 11 11 11 11 11 11 11 11 11 11 11 11 12 11 11 11 11 11 11 11 11 11 12 12 12 12 12 12 12 12 12 12 12 12
11 11 11 11 11 11 11 11 11 11 11 11 11 11 11 11 11 11 11 11 11 12 11 11 11 10 10 10 11 11 11 11 11 11 11 11 11 11 11 11 11 11 11
11 11 11 11 11 10 10 10 10 10 10 10 10 10 10 10 10 10 10 10 10 11 11 10 10 10 10 10 10 10 10 11 11 11 11 11 11 11 11 11 11 11 11
10 10 10 10 10 10 10 10 10 10 10 10 10 10 10 10 10 10 10 10 10 10 10 10 10 10 10 10 10 10 10 10 10 10 11 11 11 11 11 11 11 11 11
10 10 10 10 10 10 10 10 10 10 10 10 10 10 10 10 10 10 10 10 10 10 10 10 10 10 10 10 10 10 10 10 10 10 10 10 10 10 10 10 11 10 10
10 10 10 10 10 10 9 9 9 9 9 9 9 9 9 9 10 9 9 9 9 9 9 10 9 9 9 9 9 9 9 10 9 10 10 10 10 10 10 10 10 10 10
9 9 9 9 9 9 9 9 9 9 9 9 9 9 9 9 9 9 9 9 9 9 9 9 9 9 9 9 9 9 9 9 9 9 9 9 9 9 10 10 10 10 10
9 9 9 9 9 9 9 9 9 9 9 9 9 9 9 9 9 9 9 9 9 9 9 9 9 9 9 9 9 9 9 9 9 9 9 9 9 9 9 9 9 9 9
8 8 9 8 9 9 9 9 9 8 8 8 9 8 9 9 9 9 9 9 9 8 8 8 8 8 8 8 8 8 8 8 8 8 8 8 8 8 8 9 9 9 9
8 8 8 8 8 8 8 8 8 8 8 8 8 8 8 8 8 8 8 8 8 8 8 8 8 8 8 8 8 8 8 8 8 8 8 8 8 8 8 8 9 9 9
8 8 8 8 8 8 8 8 8 8 8 8 8 8 8 8 8 8 8 8 8 8 8 8 8 8 8 8 8 8 8 8 8 8 8 8 8 8 8 8 9 9 9
7 7 7 7 7 8 8 8 8 7 7 7 7 7 7 7 8 8 7 7 7 7 7 7 7 7 8 8 8 7 7 7 7 7 7 7 7 7 8 8 8 9 9
7 7 7 7 7 7 7 7 7 7 7 7 7 7 7 7 7 7 7 7 7 7 7 7 7 7 7 7 7 7 7 7 7 7 7 7 7 7 7 8 8 8 8
Wind_Speed
2 2 3 3 3 3 3 3 3 4 4 4 4 4 4 5 5 5 6 10 9 8 7 7 6 5 5 4 4 5 4 5 4 4 4 4 5 5 6 6 6 6 6
2 2 2 2 2 2 2 2 3 3 3 4 4 4 4 4 5 4 4 6 8 7 7 7 6 5 4 3 3 4 4 4 4 4 4 4 5 5 6 7 7 7 7
1 1 1 2 2 2 2 2 3 3 3 3 4 4 4 4 4 4 4 4 4 6 7 7 7 6 5 4 4 3 3 3 3 3 3 4 5 5 6 6 6 7 7
2 2 1 1 1 2 1 1 1 2 3 3 3 3 3 3 4 4 4 4 4 4 6 7 7 6 5 4 4 3 4 3 3 2 2 3 4 5 6 6 6 6 6
1 1 1 1 1 1 1 1 1 1 2 2 2 2 3 3 3 4 4 4 4 4 4 5 5 5 5 5 4 3 3 3 3 2 2 3 4 6 6 6 6 6 6
2 1 1 0 1 1 1 1 2 1 1 1 1 2 2 2 2 3 3 4 4 4 4 4 3 4 5 6 6 5 4 4 4 3 3 3 4 6 7 6 6 6 6
2 1 0 1 1 1 1 1 1 1 1 1 1 1 1 1 3 3 3 3 3 4 4 4 4 4 4 5 6 6 5 5 4 4 4 4 4 6 6 6 6 6 5
1 1 1 1 1 1 1 2 2 1 0 0 1 1 1 1 2 2 2 2 3 3 4 4 5 4 4 4 6 6 6 4 4 4 4 4 5 6 6 6 5 5 5
2 1 1 1 1 1 1 2 2 2 1 1 1 1 1 1 1 1 2 2 3 3 3 4 4 5 4 4 4 5 6 4 3 3 4 4 5 6 5 5 5 5 4
2 1 1 0 1 0 1 1 1 1 1 1 1 1 2 1 1 1 0 1 3 3 4 3 4 5 5 4 5 7 7 5 3 3 4 4 5 5 5 5 5 5 5
2 2 1 1 0 0 0 1 1 1 1 2 1 1 1 1 2 2 1 1 1 2 3 3 3 4 5 4 4 6 7 5 4 3 3 4 4 4 4 4 4 4 4
2 2 2 1 0 0 1 1 1 1 1 1 2 1 2 2 2 2 2 2 2 1 1 2 2 3 3 4 5 7 6 5 3 3 3 4 4 4 3 3 3 4 4
1 1 1 1 1 1 1 1 2 2 2 2 2 2 2 2 2 2 2 2 2 1 1 0 1 2 3 3 3 4 4 4 3 3 3 3 3 3 3 3 3 4 4
1 1 1 1 1 1 1 1 1 2 2 2 2 2 1 2 2 2 2 2 2 2 2 1 0 1 2 2 4 2 2 4 3 3 3 3 3 2 3 3 3 3 4
1 1 1 1 1 1 1 1 1 1 2 2 2 2 2 1 2 2 2 3 3 3 2 1 1 1 1 2 3 2 1 3 3 3 3 3 2 2 2 2 3 3 3
1 1 1 1 1 1 1 1 2 2 2 2 2 2 2 2 2 2 2 3 3 3 3 2 2 1 1 2 2 2 2 2 3 3 3 2 2 2 2 2 3 3 3
1 1 2 1 1 1 2 1 2 2 3 3 3 4 4 3 2 2 3 3 3 3 3 3 2 2 2 2 2 2 1 0 2 4 3 3 2 2 1 2 3 4 3
2 2 2 2 2 2 2 2 3 3 3 4 4 4 4 3 4 3 3 3 3 4 4 4 3 3 3 2 2 2 1 1 0 4 4 3 2 2 1 1 2 4 4
2 2 2 2 2 3 3 3 3 3 4 4 5 5 4 4 4 4 4 4 3 3 4 4 4 3 3 2 2 2 2 1 1 2 3 4 4 3 3 2 3 4 4
2 2 2 2 3 3 3 3 4 4 4 4 4 4 5 5 5 4 4 4 4 4 4 4 4 3 3 3 3 3 2 2 2 2 2 3 4 5 4 4 3 4 4
2 2 3 3 3 3 3 3 4 4 4 4 4 4 4 3 3 3 3 4 4 4 4 4 4 4 3 3 3 3 3 2 2 3 3 3 3 4 5 6 5 5 6
3 3 3 3 3 2 2 3 4 4 3 4 3 3 3 4 4 4 4 5 5 5 4 4 5 5 5 5 4 4 4 3 3 2 3 4 4 4 4 5 5 6 7
3 3 3 3 4 2 1 2 4 4 4 3 3 3 2 2 4 5 5 6 5 5 5 6 6 6 5 5 5 5 5 5 5 3 3 4 4 5 4 4 4 6 7
4 3 3 4 4 2 2 3 4 4 3 3 3 3 3 3 3 4 4 5 5 5 5 6 6 6 6 5 5 6 6 5 4 3 3 4 4 4 4 4 5 6 7
4 4 3 4 4 3 2 3 4 3 3 3 3 3 3 3 1 3 5 5 5 4 4 5 6 5 5 4 4 4 4 4 4 3 3 3 4 4 4 4 4 6 8
4 3 3 4 4 3 2 2 4 4 4 3 3 3 3 4 2 3 5 5 5 5 4 4 5 5 5 5 6 5 4 5 4 3 3 3 3 3 3 3 3 3 5
Wind_Direction
72 78 80 78 74 76 83 76 77 75 70 65 60 55 53 52 47 46 58 62 54 51 50 50 54 58 60 64 70 72 75 78 75 79 82 90 100 99 103 104 101 102 101
65 66 76 79 74 74 76 77 74 72 67 63 56 50 45 47 47 45 52 69 66 52 44 43 45 50 54 56 60 70 77 76 72 77 83 92 105 110 108 106 102 101 99
54 66 65 79 78 84 87 81 80 74 71 68 60 49 46 41 41 40 41 43 61 69 55 45 41 42 39 43 54 58 67 65 61 74 96 108 116 120 115 112 108 107 103
66 64 61 69 71 78 91 98 93 76 69 61 52 43 41 44 38 36 39 43 39 40 61 57 39 37 36 36 47 54 63 57 49 58 90 121 134 133 129 122 117 115 107
63 83 63 53 80 93 98 101 93 80 70 58 55 49 38 39 36 35 36 36 40 32 35 63 55 44 39 34 38 53 60 52 56 70 94 116 138 144 138 131 126 120 112
33 58 108 100 88 107 92 97 89 80 76 58 57 51 36 35 37 36 24 28 30 28 25 25 38 66 62 44 38 41 44 48 54 70 96 117 139 145 141 134 133 127 121
44 50 51 107 109 128 122 125 121 115 89 67 104 84 77 62 42 39 25 16 29 28 28 28 23 25 55 71 52 37 36 45 64 79 95 118 134 138 136 133 132 130 125
58 60 85 116 143 142 137 132 138 144 127 234 285 276 246 158 70 40 31 26 24 33 33 28 27 25 18 33 58 45 35 43 68 85 96 112 127 134 135 134 133 133 126
51 49 84 116 132 165 159 162 175 182 206 232 321 315 299 320 5 102 41 37 28 25 27 25 23 24 21 29 41 53 42 51 66 90 101 116 129 132 134 133 137 138 133
53 41 44 100 146 141 157 188 192 217 220 224 239 308 307 334 287 268 171 42 28 29 18 19 18 20 17 23 39 38 42 51 65 89 106 116 122 125 124 127 133 134 138
52 41 32 67 123 118 174 178 191 233 229 241 246 248 244 265 272 270 269 319 348 20 17 15 23 22 16 19 26 41 41 43 55 80 103 111 116 123 127 123 134 138 139
53 45 24 9 321 260 232 214 212 222 245 243 250 247 250 253 263 265 263 275 295 326 10 25 20 20 11 15 27 40 40 47 55 76 94 108 109 115 124 125 129 142 147
37 25 359 333 345 326 297 249 228 231 233 242 248 259 263 266 269 267 264 271 283 289 307 306 29 15 10 10 28 32 48 51 59 79 94 110 119 131 137 137 135 141 146
11 349 321 315 323 319 311 267 244 235 241 239 248 256 252 261 262 252 263 271 275 266 258 272 32 6 2 4 24 351 57 70 77 90 103 113 125 145 153 149 155 160 160
350 349 291 273 292 287 283 262 245 238 246 242 239 240 246 256 256 259 256 256 272 274 274 283 277 349 350 1 9 333 349 84 96 106 112 112 108 123 148 158 162 167 168
332 316 288 252 254 256 244 248 251 251 243 243 248 246 247 252 253 247 246 259 268 272 276 286 288 298 350 329 351 329 345 106 115 124 127 131 126 130 160 168 170 169 167
303 299 298 283 270 263 249 229 259 250 246 245 240 237 241 250 241 236 243 249 255 256 256 269 279 289 287 298 336 337 334 269 143 138 136 133 136 151 181 189 191 187 183
304 303 302 289 276 267 263 250 248 253 251 248 246 245 245 246 246 244 244 247 247 247 250 258 266 276 277 292 307 309 305 308 238 143 155 168 175 180 185 210 217 207 203
284 288 282 281 277 276 271 262 258 259 258 255 249 246 247 242 243 246 244 249 250 247 247 247 253 260 267 270 280 282 282 280 257 183 181 196 195 199 209 220 228 215 216
267 283 283 273 269 271 271 274 267 263 263 261 256 249 247 248 247 251 247 251 251 247 243 243 248 250 250 258 259 265 270 269 256 235 224 216 200 205 212 219 229 220 218
256 270 281 286 280 273 282 288 274 263 262 262 254 247 246 254 276 269 264 258 252 248 244 244 245 250 251 247 253 255 257 266 261 247 242 232 219 219 214 217 221 227 231
254 261 270 280 281 273 320 317 297 266 264 265 264 256 248 235 239 236 251 264 263 253 250 248 249 249 252 253 255 254 250 253 258 231 246 250 238 238 228 224 219 224 232
252 256 265 270 270 272 291 277 285 279 270 269 263 258 255 260 255 244 233 228 235 248 261 262 257 259 258 256 251 249 246 247 258 251 247 252 243 244 240 228 205 219 226
242 251 258 266 267 270 275 261 266 261 265 262 260 257 255 252 259 270 255 246 243 239 243 252 259 267 268 265 253 250 253 253 258 242 238 252 249 252 249 239 209 217 225
245 248 253 258 264 261 244 251 259 259 256 258 262 268 271 264 264 286 264 249 248 252 240 245 271 276 286 281 265 248 241 239 249 244 237 252 256 264 261 248 219 211 225
246 250 250 255 261 263 231 239 256 253 256 262 267 266 270 282 277 258 262 256 251 256 258 245 243 245 248 232 224 234 235 239 250 244 221 241 253 258 258 251 243 238 232
Height
1539 1539 1539 1538 1538 1538 1538 1538 1538 1538 1537 1538 1537 1537 1537 1536 1536 1536 1535 1534 1534 1534 1533 1533 1533 1532 1532 1532 1532 1531 1530 1530 1530 1529 1529 1529 1529 1530 1530 1531 1532 1532 1533
1540 1539 1539 1539 1539 1539 1538 1539 1538 1538 1538 1538 1538 1537 1537 1537 1536 1536 1536 1535 1534 1534 1534 1533 1533 1533 1532 1532 1531 1531 1530 1530 1529 1528 1528 1528 1528 1529 1529 1530 1531 1532 1533
1540 1540 1540 1539 1539 1539 1539 1539 1539 1539 1538 1538 1538 1537 1537 1537 1536 1536 1536 1535 1535 1534 1534 1533 1533 1532 1532 1531 1531 1530 1530 1529 1527 1526 1526 1526 1526 1527 1528 1529 1531 1532 1533
1540 1540 1539 1539 1539 1539 1539 1539 1539 1539 1539 1538 1538 1538 1537 1536 1536 1536 1536 1535 1535 1535 1534 1533 1533 1532 1532 1531 1530 1530 1529 1527 1525 1523 1522 1522 1523 1525 1527 1528 1530 1531 1533
1539 1539 1539 1539 1539 1539 1539 1539 1539 1539 1539 1538 1538 1537 1537 1537 1536 1536 1536 1535 1535 1534 1534 1533 1532 1532 1531 1531 1530 1529 1528 1526 1523 1521 1520 1520 1521 1523 1525 1527 1529 1531 1532
1539 1539 1539 1539 1539 1539 1539 1539 1538 1538 1538 1538 1538 1538 1537 1537 1536 1536 1535 1535 1535 1534 1534 1533 1533 1532 1531 1530 1529 1528 1527 1525 1523 1520 1519 1519 1520 1522 1524 1527 1529 1531 1532
1537 1538 1538 1538 1538 1538 1538 1538 1538 1538 1538 1538 1538 1538 1538 1537 1537 1536 1535 1535 1535 1534 1534 1533 1533 1532 1531 1530 1529 1528 1527 1525 1524 1522 1520 1519 1520 1523 1525 1527 1529 1530 1532
1536 1537 1537 1537 1537 1537 1537 1537 1537 1538 1538 1538 1538 1538 1538 1539 1537 1536 1535 1535 1535 1534 1533 1533 1532 1531 1530 1530 1528 1527 1526 1525 1524 1523 1523 1522 1523 1524 1526 1528 1529 1530 1531
1535 1536 1536 1536 1536 1536 1536 1536 1537 1537 1537 1537 1538 1538 1538 1537 1537 1537 1536 1535 1534 1534 1533 1532 1532 1531 1530 1529 1528 1526 1525 1525 1525 1524 1524 1524 1525 1526 1527 1528 1529 1530 1531
1534 1535 1535 1535 1535 1535 1535 1535 1536 1536 1536 1537 1536 1536 1537 1537 1537 1537 1537 1535 1534 1533 1533 1532 1531 1530 1529 1528 1527 1526 1525 1525 1525 1525 1525 1525 1525 1526 1527 1528 1529 1530 1531
1534 1534 1534 1534 1534 1534 1534 1534 1534 1535 1535 1535 1536 1536 1536 1536 1536 1536 1535 1535 1534 1533 1532 1531 1530 1529 1528 1527 1526 1525 1524 1524 1524 1524 1524 1525 1525 1526 1527 1528 1529 1529 1530
1533 1533 1533 1533 1533 1533 1533 1533 1533 1533 1534 1534 1534 1534 1535 1535 1535 1535 1534 1534 1533 1533 1532 1531 1530 1528 1527 1526 1525 1524 1523 1523 1523 1523 1524 1524 1525 1526 1526 1527 1528 1529 1530
1532 1532 1532 1532 1532 1532 1532 1532 1532 1532 1532 1532 1533 1533 1533 1534 1534 1534 1534 1533 1532 1532 1531 1530 1529 1528 1527 1526 1524 1523 1522 1522 1522 1522 1523 1523 1524 1525 1526 1526 1527 1528 1528
1531 1531 1531 1531 1531 1531 1530 1530 1530 1531 1531 1531 1531 1531 1531 1532 1532 1532 1532 1532 1531 1531 1530 1530 1528 1527 1526 1525 1524 1522 1522 1521 1521 1521 1521 1522 1523 1524 1524 1525 1526 1526 1527
1530 1530 1530 1529 1529 1529 1529 1529 1529 1529 1529 1529 1529 1530 1530 1530 1530 1530 1531 1531 1531 1530 1529 1528 1527 1526 1525 1524 1523 1522 1521 1520 1520 1520 1520 1521 1521 1522 1523 1523 1524 1525 1526
1529 1528 1528 1528 1528 1528 1528 1527 1528 1527 1528 1528 1528 1528 1528 1529 1529 1529 1529 1529 1529 1529 1528 1527 1526 1525 1524 1524 1523 1521 1521 1520 1519 1519 1519 1520 1520 1521 1521 1522 1522 1523 1524
1527 1527 1527 1527 1527 1526 1526 1526 1526 1526 1526 1526 1526 1527 1527 1527 1527 1527 1527 1527 1527 1526 1525 1525 1524 1524 1523 1523 1522 1521 1520 1520 1519 1519 1519 1519 1519 1519 1520 1520 1520 1521 1522
1525 1525 1525 1525 1525 1525 1525 1524 1524 1523 1523 1523 1524 1524 1524 1524 1525 1525 1525 1525 1525 1524 1524 1523 1523 1522 1522 1521 1521 1520 1519 1519 1518 1518 1518 1518 1518 1518 1518 1518 1519 1519 1520
1523 1523 1523 1522 1522 1522 1522 1522 1522 1521 1521 1521 1521 1522 1522 1522 1522 1522 1522 1522 1522 1522 1522 1521 1521 1520 1520 1520 1519 1518 1518 1517 1517 1517 1517 1516 1516 1516 1516 1517 1517 1518 1518
1521 1521 1521 1520 1520 1520 1520 1520 1519 1519 1519 1519 1518 1518 1518 1519 1519 1519 1520 1520 1520 1519 1519 1519 1518 1518 1517 1517 1517 1516 1516 1516 1515 1515 1515 1515 1515 1514 1514 1515 1515 1515 1516
1519 1518 1518 1518 1518 1517 1517 1517 1517 1516 1516 1516 1516 1515 1515 1515 1516 1516 1516 1517 1517 1517 1516 1516 1516 1515 1515 1514 1514 1514 1514 1513 1513 1513 1513 1513 1513 1513 1512 1512 1512 1512 1513
1516 1515 1515 1515 1515 1514 1514 1514 1514 1514 1513 1513 1513 1513 1513 1512 1512 1512 1513 1513 1513 1514 1513 1513 1513 1512 1512 1512 1512 1511 1511 1511 1511 1511 1511 1511 1511 1510 1510 1510 1510 1510 1510
1513 1512 1512 1512 1512 1511 1511 1510 1510 1510 1510 1510 1510 1510 1510 1509 1509 1510 1510 1509 1510 1510 1510 1510 1510 1509 1509 1509 1508 1508 1508 1508 1508 1508 1508 1507 1508 1508 1508 1507 1507 1507 1507
1510 1509 1509 1509 1508 1508 1507 1507 1507 1507 1507 1507 1507 1507 1507 1506 1506 1506 1506 1506 1506 1506 1506 1506 1506 1506 1506 1505 1505 1505 1505 1505 1505 1505 1505 1505 1505 1505 1504 1504 1504 1504 1504
1506 1506 1506 1505 1505 1505 1504 1504 1504 1504 1504 1504 1504 1504 1503 1503 1503 1502 1503 1503 1503 1503 1502 1502 1501 1501 1501 1501 1501 1501 1501 1501 1501 1501 1501 1501 1501 1501 1501 1501 1501 1501 1501
1502 1502 1502 1502 1502 1501 1501 1501 1501 1501 1501 1501 1501 1500 1499 1499 1499 1499 1499 1500 1499 1499 1499 1498 1498 1498 1498 1497 1497 1498 1497 1498 1498 1498 1497 1498 1498 1498 1498 1497 1497 1498 1497